Other Public Products
Issued by NWS Grand Forks, ND

Home | Current Version | Previous Version | Graphics & Text | Print | Product List | Glossary On
Versions: 1 2 3 4 5 6 7 8 9 10 11 12 13 14 15 16 17 18 19 20 21 22 23 24 25 26 27 28 29 30 31 32 33 34 35 36 37 38 39 40 41 42 43 44 45 46 47 48 49 50
000
FPUS83 KFGF 260031
OPUFGF
PRAIRIE TO PINES WEATHER ROUNDUP
NATIONAL WEATHER SERVICE EASTERN NORTH DAKOTA/GRAND FORKS ND
600 PM CST THU DEC 25 2014

 **SATELLITE DATA USED TO AUGMENT SKY COVER AT AUTOMATED STATIONS**
 *****  WEATHER ACROSS EASTERN NORTH DAKOTA  *****

CITY           SKY/WX    TMP DP  RH WIND       PRES   REMARKS
GRAND FORKS    CLOUDY    27  25  93 N7        29.92R WCI  19
6HR MIN TEMP:  27; 6HR MAX TEMP:  29; 6HR PCP: TRACE;

GRAND FORKS AF CLOUDY    27  27  99 N6        29.92R WCI  20
GRAND CITY NWS   N/A     27 N/A N/A N14         N/A  WCI  15
BUXTON           N/A     27  23  84 NW9         N/A  WCI  18
DEVILS LAKE    CLOUDY    25  21  86 N7        29.90R WCI  17
6HR MIN TEMP:  25; 6HR MAX TEMP:  27;

FARGO          CLOUDY    29  23  78 N15       29.88R WCI  18
6HR MIN TEMP:  29; 6HR MAX TEMP:  31;

WAHPETON ARPT  CLOUDY    30  27  86 N7        29.87R WCI  23
$$

 *****  WEATHER ACROSS CENTRAL AND WESTERN NORTH DAKOTA  *****

CITY           SKY/WX    TMP DP  RH WIND       PRES   REMARKS
JAMESTOWN      CLOUDY    27  21  78 N12       29.87R WCI  17
6HR MIN TEMP:  26; 6HR MAX TEMP:  28;

BISMARCK       CLOUDY    28  22  78 N12       29.92R WCI  18
6HR MIN TEMP:  27; 6HR MAX TEMP:  30; 6HR PCP:  0.01;

MINOT          CLOUDY    24  18  77 NW12      29.94R WCI  13
6HR MIN TEMP:  24; 6HR MAX TEMP:  28; 6HR PCP: TRACE;

MINOT AFB      CLOUDY    23  23 100 N13       29.94R WCI  11
6HR MIN TEMP:  24; 6HR MAX TEMP:  27; 6HR PCP: TRACE;

GARRISON         N/A     25  20  81 N17       29.92R WCI  12
6HR MIN TEMP:  25; 6HR MAX TEMP:  28;

WILLISTON      CLOUDY    22  15  75 NW12      29.99R WCI  10
6HR MIN TEMP:  22; 6HR MAX TEMP:  27;

DICKINSON      CLOUDY    24  16  71 NW15      29.90R WCI  11
6HR MIN TEMP:  24; 6HR MAX TEMP:  26;

HETTINGER      CLOUDY    23  18  81 N16       29.91R WCI  10
6HR MIN TEMP:  23; 6HR MAX TEMP:  27;

$$

 *****  OTHER OBSERVATIONS NORTHEAST NORTH DAKOTA  *****

CITY           SKY/WX    TMP DP  RH WIND       PRES   REMARKS
WALHALLA         N/A     25  25 100 N7        29.93R WCI  17
LANGDON        CLOUDY    23  19  86 N7        29.90R WCI  15
CAVALIER       CLOUDY    27  21  80 N9        29.93R WCI  17
GRAFTON        NOT AVBL
CANDO          CLOUDY    25  21  86 N8        29.92R WCI  16
FORT TOTTEN      N/A     25  22  87 N3        29.95
ROLLA          CLOUDY    21  21 100 N15       29.91R WCI   8
RUGBY          CLOUDY    25  23  93 NW14      29.92R WCI  13
 ***** THE ABOVE OBSERVATIONS ARE NON NWS ARE NOT QUALITY
        CONTROLLED AND MAY MIS-REPORT RAIN FOR SNOW...
$$

 *****  OTHER OBSERVATIONS SOUTHEAST NORTH DAKOTA *****

CITY           SKY/WX    TMP DP  RH WIND       PRES   REMARKS
COOPERSTOWN    NOT AVBL
VALLEY CITY    CLOUDY    27  27 100 N15       29.87R WCI  15
OAKES            N/A     27  25  93 N14       29.88R WCI  15
GWINNER        CLOUDY    30  28  93 N9        29.88R WCI  22
BUFFALO        NOT AVBL
WYNDMERE         N/A     28  25  86 N12         N/A  WCI  18
 ***** THE ABOVE OBSERVATIONS ARE NON NWS ARE NOT QUALITY
       CONTROLLED AND MAY MIS-REPORT RAIN FOR SNOW...
$$

  *****  WEATHER ACROSS NORTHERN MINNESOTA  *****

CITY           SKY/WX    TMP DP  RH WIND       PRES   REMARKS
FLAG ISLAND    CLOUDY    27  23  86 NW14      29.84R WCI  15
WARROAD        CLOUDY    27  23  86 NW5       29.87R WCI  21
ROSEAU         CLOUDY    27  23  86 NW6       29.88R WCI  20
HALLOCK        CLOUDY    27  23  86 NW8       29.91R WCI  18
THF RVR FALLS  CLOUDY    27  21  80 N10       29.89R WCI  17
6HR MIN TEMP:  27; 6HR MAX TEMP:  28;

HALSTAD          N/A     28  21  77 N9          N/A  WCI  19
FOSSTON        CLOUDY    23  19  86 N10G17    29.87R WCI  12
BAUDETTE       CLOUDY    27  24  89 NW6       29.84R WCI  20
6HR MIN TEMP:  27; 6HR MAX TEMP:  30;

WASKISH        CLOUDY    27  23  86 CALM      29.86R
CROOKSTON      CLOUDY    27  25  93 N10       29.91S WCI  17
$$
  *****  WEATHER ACROSS CENTRAL AND WEST MINNESOTA  *****

CITY           SKY/WX    TMP DP  RH WIND       PRES   REMARKS
BEMIDJI        CLOUDY    26  21  83 N9        29.85R WCI  16
PARK RAPIDS    CLOUDY    29  22  75 NW7       29.82R WCI  22
6HR MIN TEMP:  29; 6HR MAX TEMP:  31;

WADENA         CLOUDY    28  25  86 N6        29.83R WCI  22
DETROIT LAKES  CLOUDY    28  27  93 N12       29.86R WCI  18
MOORHEAD       CLOUDY    28  27  93 N13       29.90R WCI  18
FERGUS FALLS   CLOUDY    28  27  93 N6        29.88R WCI  22
ELBOW LAKE     CLOUDY    28  26  91 N14       29.84R WCI  17
6HR MIN TEMP:  27; 6HR MAX TEMP:  29;

MORRIS MN      CLOUDY    30  27  86 N13       29.83R WCI  20
STAPLES        CLOUDY    28  25  86 N3        29.84R
WHEATON        CLOUDY    27  25  93 N7        29.89R WCI  19
$$
  *****  WEATHER ELSEWHERE ACROSS MINNESOTA  *****

CITY           SKY/WX    TMP DP  RH WIND       PRES   REMARKS
DULUTH         CLOUDY    31  25  78 NW6       29.79R
6HR MIN TEMP:  31; 6HR MAX TEMP:  32;

INTRNTL FALLS  CLOUDY    28  23  81 W6        29.82R WCI  22
6HR MIN TEMP:  28; 6HR MAX TEMP:  31; 6HR PCP: TRACE;

ELY            CLOUDY    28  25  86 CALM      29.80R
CLOQUET        CLOUDY    30  27  86 NW3       29.82R
BRAINERD       CLOUDY    30  23  75 N3        29.83R
6HR MIN TEMP:  30; 6HR MAX TEMP:  32;

HIBBING        CLOUDY    31  24  75 NW7       29.80R WCI  24
6HR MIN TEMP:  31; 6HR MAX TEMP:  32;

ALEXANDRIA     CLOUDY    30  24  78 N12       29.82R WCI  20
6HR MIN TEMP:  29; 6HR MAX TEMP:  31;

SAINT CLOUD    CLOUDY    36  28  73 N6        29.82R
6HR MIN TEMP:  34; 6HR MAX TEMP:  37;

MINNEAPOLIS    CLOUDY    34  29  82 SE6       29.81R
6HR MIN TEMP:  33; 6HR MAX TEMP:  35; 6HR PCP: TRACE;

$$

  *****  WEATHER ACROSS SOUTH DAKOTA  *****

CITY           SKY/WX    TMP DP  RH WIND       PRES   REMARKS
SIOUX FALLS    DRIZZLE   32  30  92 NE14      29.76R FOG     WCI  22
6HR MIN TEMP:  32; 6HR MAX TEMP:  36; 6HR PCP: TRACE;

BROOKINGS      NOT AVBL
WATERTOWN      LGT SNOW  25  23  92 N18       29.79R FOG     WCI  11
6HR MIN TEMP:  25; 6HR MAX TEMP:  32; 6HR PCP:  0.01;

HURON          LGT SNOW  26  23  88 N17       29.84R FOG     WCI  13
6HR MIN TEMP:  26; 6HR MAX TEMP:  31; 6HR PCP:  0.03;

SISSETON         N/A     27  25  92 N10       29.85R WCI  17
ABERDEEN       CLOUDY    29  22  75 N13       29.87R WCI  19
6HR MIN TEMP:  28; 6HR MAX TEMP:  30;

MITCHELL       CLOUDY    30  27  88 N15G24    29.81R WCI  19
PIERRE         CLOUDY    28  24  85 N15       29.85R WCI  16
6HR MIN TEMP:  28; 6HR MAX TEMP:  31; 6HR PCP: TRACE;

MOBRIDGE       CLOUDY    28  22  78 N15       29.88R WCI  16
RAPID CITY     FLURRIES  25  21  85 N20       29.88R WCI  11
6HR MIN TEMP:  25; 6HR MAX TEMP:  28; 6HR PCP:  0.02;

$$

  *****  SOME WEATHER IN NEARBY STATES *****

CITY           SKY/WX    TMP DP  RH WIND       PRES   REMARKS
GLASGOW MT     CLOUDY    22  15  75 N7        30.01R WCI  13
6HR MIN TEMP:  22; 6HR MAX TEMP:  25;

GREAT FALLS MT CLEAR     20  14  77 S10       29.92F WCI   9
6HR MIN TEMP:  19; 6HR MAX TEMP:  25; 6HR PCP: TRACE;

CHEYENNE WY    FOG       21  18  88 N17G29    29.64R VSB 1/2 WCI   7
6HR MIN TEMP:  21; 6HR MAX TEMP:  30; 6HR PCP:  0.06;

SCOTTSBLUFF NE LGT SNOW  26  22  84 N12       29.77R FOG     WCI  16
6HR MIN TEMP:  26; 6HR MAX TEMP:  30; 6HR PCP:  0.17;

OMAHA NE       PTCLDY    41  31  67 SE8       29.66R
6HR MIN TEMP:  40; 6HR MAX TEMP:  49;

DES MOINES IA  MOCLDY    45  30  55 SE10      29.74R
6HR MIN TEMP:  43; 6HR MAX TEMP:  50;

DAVENPORT IA   PTCLDY    41  30  65 S15       29.88F
6HR MIN TEMP:  41; 6HR MAX TEMP:  47;

CHICAGO IL     MOCLDY    40  34  79 S13       29.98R
6HR MIN TEMP:  37; 6HR MAX TEMP:  42;

EAU CLAIRE WI  CLOUDY    33  28  81 E5        29.82R
6HR MIN TEMP:  33; 6HR MAX TEMP:  34; 6HR PCP: TRACE;

LA CROSSE WI   PTCLDY    37  30  75 E5        29.82R
6HR MIN TEMP:  36; 6HR MAX TEMP:  42;

$$

  *****  SOME NATIONAL WEATHER *****

CITY           SKY/WX    TMP DP  RH WIND       PRES   REMARKS
LA GUARDIA NY  PTCLDY    49  29  46 W13G26    30.00R


USA.gov is the U.S. government's official web portal to all federal, state and local government web resources and services.